This is the latest recevied weather packets stored in our database for station/object KQ4KX. If no packets are shown the sender has not sent any weather packets the latest 10 day(s).
| Time | Temp. | Humidity | Pressure | Rain* | Wind** | Luminosity | Snow |
|---|---|---|---|---|---|---|---|
| 1777485535 | 30.56° C | 57% | 1015.4 hPa | 0 mm | - | - | - |
| 1777484875 | 31.11° C | 59% | 1015.6 hPa | 0 mm | - | - | - |
| 1777484545 | 30.56° C | 59% | 1015.9 hPa | 0 mm | - | - | - |
| 1777484245 | 30.56° C | 58% | 1016.1 hPa | 0 mm | - | - | - |
| 1777483345 | 31.11° C | 59% | 1016.3 hPa | 0 mm | - | - | - |
| 1777483015 | 31.11° C | 60% | 1016.3 hPa | 0 mm | - | - | - |
| 1777482685 | 30.56° C | 59% | 1016.3 hPa | 0 mm | - | - | - |
| 1777482085 | 30.56° C | 61% | 1016.6 hPa | 0 mm | - | - | - |
| 1777481785 | 30.56° C | 59% | 1016.7 hPa | 0 mm | - | - | - |
| 1777481155 | 30° C | 61% | 1016.8 hPa | 0 mm | - | - | - |
| 1777478995 | 30° C | 61% | 1017.8 hPa | 0 mm | - | - | - |
| 1777478695 | 30° C | 63% | 1017.9 hPa | 0 mm | - | - | - |
| 1777478396 | 29.44° C | 61% | 1017.9 hPa | 0 mm | - | - | - |
| 1777477735 | 29.44° C | 63% | 1017.8 hPa | 0 mm | - | - | - |
| 1777476505 | 28.89° C | 66% | 1017.8 hPa | 0 mm | - | - | - |
| 1777474975 | 27.78° C | 73% | 1018.1 hPa | 0 mm | - | - | - |
| 1777474645 | 27.78° C | 76% | 1018.2 hPa | 0 mm | - | - | - |
| 1777474345 | 27.78° C | 76% | 1018.2 hPa | 0 mm | - | - | - |
| 1777473385 | 26.67° C | 80% | 1018 hPa | 0 mm | - | - | - |
| 1777473055 | 26.11° C | 81% | 1018.2 hPa | 0 mm | - | - | - |
| 1777472726 | 26.11° C | 81% | 1018.4 hPa | 0 mm | - | - | - |
| 1777472395 | 25.56° C | 84% | 1018.4 hPa | 0 mm | - | - | - |
| 1777471766 | 25° C | 85% | 1018.2 hPa | 0 mm | - | - | - |
| 1777471465 | 25° C | 85% | 1018.4 hPa | 0 mm | - | - | - |
| 1777471165 | 24.44° C | 85% | 1018.5 hPa | 0 mm | - | - | - |
* Rain latest hour (hover to see other rain measurements)
** Current wind speed in m/s (hover to see current wind gust speed)